Home   Weather   Arctic Bay   Past weeks

Flag for Canada Past Weather in Arctic Bay, Nunavut, Canada — Yesterday and Last 2 Weeks

Now
34 °F

Clear.


Feels Like: 23 °F
Forecast: 20 / 29 °F
Wind: 16 mph from Northeast

Location: Pond Inlet

Current Time: Sep 29, 2016 at 9:41:44 PM

Latest Report: Sep 29, 2016 at 9:00 PM


Visibility: 9 mi

Pressure: 29.70 "Hg

Humidity: 60%

Dew Point: 21 °F

Location of Arctic BayLocation

Past Weather in Arctic Bay — Graph

°F

Arctic Bay Temperature Yesterday

Maximum temperature yesterday: 32 °F (at 12:00 PM)
Minimum temperature yesterday: 23 °F (at 9:00 PM)
Average temperature yesterday: 28 °F

High & Low Weather Summary for the Past Weeks

 TemperatureHumidityPressure
High37 °F (Sep 26, 11:00 PM)100% (Sep 15, 5:00 PM)30.16 "Hg (Sep 15, 5:00 PM)
Low21 °F (Sep 23, 1:00 AM)45% (Sep 29, 5:00 PM)29.40 "Hg (Sep 14, 8:00 PM)
Average30 °F87%29.84 "Hg
* Reported Sep 14 8:00 PM — Sep 29 8:00 PM, Arctic Bay, Weather by CustomWeather, © 2016

Note: Actual official high and low records may vary slightly from our data, if they occured in-between our weather recording intervals... More about our weather records

Advertising

Arctic Bay Weather History for the Previous 24 Hours

Scroll right to see more
 ConditionsComfort  
Time TempWeatherWind HumidityBarometerVisibility
8:00 PM
Thu, Sep 29
32 °FClear.3 mph60%29.70 "Hg9 mi
7:00 PM32 °FPassing clouds.8 mph64%29.68 "Hg35 mi
6:00 PM34 °FPassing clouds.15 mph56%29.66 "Hg25 mi
5:00 PM37 °FPassing clouds.15 mph45%29.64 "Hg25 mi
4:00 PM37 °FScattered clouds.12 mph48%29.65 "Hg30 mi
3:00 PM30 °FBroken clouds.2 mph86%29.65 "Hg25 mi
2:00 PM28 °FFog.2 mph93%29.67 "Hg40 mi
1:00 PM27 °FScattered clouds.2 mph93%29.67 "Hg40 mi
12:00 PM27 °FBroken clouds.7 mph93%29.68 "Hg40 mi
11:00 AM27 °FFog.10 mph93%29.69 "Hg25 mi
10:55 AM27 °FIce fog.10 mph93%29.69 "Hg1 mi
10:00 AM27 °FSunny.7 mph93%29.70 "Hg9 mi
9:00 AM23 °FSunny.7 mph93%29.71 "Hg9 mi
8:00 AM23 °FSunny.2 mph93%29.72 "Hg9 mi
7:00 AM23 °FSunny.5 mph93%29.74 "Hg9 mi
6:00 AM21 °FSunny.8 mph93%29.76 "Hg9 mi
5:00 AM21 °FClear.9 mph86%29.77 "Hg9 mi
4:00 AM25 °FClear.2 mph93%29.79 "Hg9 mi
3:00 AM21 °FClear.6 mph93%29.80 "Hg9 mi
2:00 AM25 °FClear.6 mph80%29.81 "Hg9 mi
1:00 AM25 °FClear.5 mph86%29.83 "Hg9 mi
12:00 AM23 °FClear.9 mph80%29.85 "Hg9 mi
11:00 PM
Wed, Sep 28
27 °FClear.3 mph74%29.87 "Hg9 mi
10:00 PM23 °FClear.6 mph93%29.90 "Hg9 mi
9:00 PM23 °FClear.3 mph93%29.92 "Hg9 mi
Weather by CustomWeather, © 2016

See weather overviewHow to use our weather pages